This is the latest recevied weather packets stored in our database for station/object KJ7HSW. If no packets are shown the sender has not sent any weather packets the latest 10 day(s).
| Time | Temp. | Humidity | Pressure | Rain* | Wind** | Luminosity | Snow |
|---|---|---|---|---|---|---|---|
| 1777788030 | 14.44° C | 76% | 1014.9 hPa | 0 mm | - | 0 W/m² | - |
| 1777787725 | 15° C | 75% | 1015 hPa | 0 mm | - | 0 W/m² | - |
| 1777787421 | 14.44° C | 77% | 1014.7 hPa | 0 mm | - | 0 W/m² | - |
| 1777787117 | 14.44° C | 78% | 1014.8 hPa | 0 mm | - | 0 W/m² | - |
| 1777786815 | 14.44° C | 76% | 1014.8 hPa | 0 mm | - | 0 W/m² | - |
| 1777786512 | 15° C | 76% | 1014.8 hPa | 0 mm | - | 0 W/m² | - |
| 1777786210 | 14.44° C | 76% | 1014.9 hPa | 0 mm | - | 0 W/m² | - |
| 1777785906 | 14.44° C | 75% | 1014.8 hPa | 0 mm | - | 0 W/m² | - |
| 1777785603 | 14.44° C | 75% | 1014.9 hPa | 0 mm | - | 0 W/m² | - |
| 1777785298 | 14.44° C | 75% | 1014.8 hPa | 0 mm | - | 0 W/m² | - |
| 1777784996 | 15° C | 75% | 1014.8 hPa | 0 mm | - | 0 W/m² | - |
| 1777784691 | 15° C | 75% | 1014.8 hPa | 0 mm | - | 0 W/m² | - |
| 1777784390 | 15° C | 74% | 1014.9 hPa | 0 mm | - | 0 W/m² | - |
| 1777784087 | 15° C | 74% | 1014.8 hPa | 0 mm | - | 0 W/m² | - |
| 1777783783 | 15° C | 76% | 1014.6 hPa | 0 mm | - | 0 W/m² | - |
| 1777783480 | 15° C | 76% | 1014.7 hPa | 0 mm | - | 0 W/m² | - |
| 1777783178 | 15.56° C | 75% | 1014.8 hPa | 0 mm | - | 0 W/m² | - |
| 1777782873 | 15.56° C | 73% | 1014.7 hPa | 0 mm | - | 0 W/m² | - |
| 1777782570 | 15.56° C | 70% | 1014.6 hPa | 0 mm | - | 0 W/m² | - |
| 1777782267 | 15.56° C | 70% | 1014.6 hPa | 0 mm | - | 0 W/m² | - |
| 1777781964 | 15.56° C | 70% | 1014.7 hPa | 0 mm | - | 0 W/m² | - |
| 1777781660 | 16.11° C | 69% | 1014.7 hPa | 0 mm | - | 0 W/m² | - |
| 1777781358 | 16.11° C | 68% | 1014.7 hPa | 0 mm | - | 0 W/m² | - |
| 1777781055 | 16.11° C | 67% | 1014.5 hPa | 0 mm | - | 0 W/m² | - |
| 1777780752 | 16.11° C | 69% | 1014.4 hPa | 0 mm | - | 0 W/m² | - |
* Rain latest hour (hover to see other rain measurements)
** Current wind speed in m/s (hover to see current wind gust speed)